Change the Weather History Date:

Wednesday, January 29, 2014

  Actual Average Record
Temperature  
Mean Temperature 36 °F -  
Max Temperature 46 °F 58 °F 82 °F (2013)
Min Temperature 25 °F 40 °F 25 °F (2014)
Degree Days  
Heating Degree Days 30    
Moisture  
Dew Point 12 °F    
Average Humidity 41    
Maximum Humidity 72    
Minimum Humidity 22    
Precipitation  
Precipitation 0.00 in - - ()
Sea Level Pressure  
Sea Level Pressure 30.47 in    
Wind  
Wind Speed 5 mph (SE)    
Max Wind Speed 12 mph    
Max Gust Speed 17 mph    
Visibility 10 miles    
Events      
Averages and records for this station are not official NWS values.
T = Trace of Precipitation, MM = Missing Value Source: NWS Daily Summary

Daily Weather History Graph

Daily Weather History Graph

Search for Another Location

Airport or City:

Trip Planner

Search our weather history database for the weather conditions in past years. The results will help you decide how hot, cold, wet, or windy it might be!

Date:

Astronomy

Jan. 29, 2014 Rise Set
Actual Time 7:24 AM CST 6:03 PM CST
Civil Twilight 6:59 AM CST 6:29 PM CST
Nautical Twilight 6:30 AM CST 6:58 PM CST
Astronomical Twilight 6:01 AM CST 7:26 PM CST
Moon 6:02 AM CST (1/29) 5:04 PM CST (1/29)
Length of Visible Light 11h 29m
Length of Day
10h 38m
Waning Crescent, 2% of the Moon is Illuminated
Jan 29
Waning Crescent
Jan 30
New
Feb 6
First Quarter
Feb 14
Full
Feb 22
Last Quarter

Hourly Weather History & Observations

Time (CST) Temp. Windchill Dew Point Humidity Pressure Visibility Wind Dir Wind Speed Gust Speed Precip Events Conditions
12:56 AM 30.0 °F 25.2 °F 9.0 °F 41% 30.54 in 10.0 mi NNW 4.6 mph - N/A   Clear
1:56 AM 28.0 °F 24.2 °F 10.9 °F 49% 30.54 in 10.0 mi NNW 3.5 mph - N/A   Clear
2:56 AM 28.0 °F - 12.0 °F 51% 30.53 in 10.0 mi Calm Calm - N/A   Clear
3:56 AM 28.0 °F - 12.9 °F 53% 30.53 in 10.0 mi Calm Calm - N/A   Clear
4:56 AM 26.1 °F - 15.1 °F 63% 30.54 in 10.0 mi Calm Calm - N/A   Clear
5:56 AM 25.0 °F - 17.1 °F 72% 30.54 in 10.0 mi Calm Calm - N/A   Clear
6:56 AM 27.0 °F - 17.1 °F 66% 30.55 in 10.0 mi Calm Calm - N/A   Clear
7:56 AM 26.1 °F - 17.1 °F 69% 30.57 in 10.0 mi Calm Calm - N/A   Clear
8:56 AM 30.9 °F - 16.0 °F 54% 30.57 in 10.0 mi Calm Calm - N/A   Clear
9:56 AM 36.0 °F 32.1 °F 12.9 °F 39% 30.57 in 10.0 mi SE 4.6 mph - N/A   Clear
10:56 AM 37.9 °F 35.5 °F 12.0 °F 35% 30.57 in 10.0 mi South 3.5 mph - N/A   Clear
11:56 AM 42.1 °F 37.7 °F 10.0 °F 27% 30.55 in 10.0 mi Variable 6.9 mph - N/A   Clear
12:56 PM 44.1 °F 38.6 °F 9.0 °F 24% 30.49 in 10.0 mi SSE 10.4 mph - N/A   Clear
1:56 PM 46.0 °F 41.4 °F 9.0 °F 22% 30.44 in 10.0 mi SSE 9.2 mph 17.3 mph N/A   Clear
2:56 PM 46.0 °F 41.9 °F 9.0 °F 22% 30.42 in 10.0 mi SE 8.1 mph - N/A   Clear
3:56 PM 46.9 °F - 10.9 °F 23% 30.40 in 10.0 mi SE 9.2 mph - N/A   Clear
4:56 PM 45.0 °F 40.6 °F 9.0 °F 23% 30.40 in 10.0 mi SSE 8.1 mph - N/A   Clear
5:56 PM 43.0 °F 36.8 °F 12.0 °F 28% 30.39 in 10.0 mi SE 11.5 mph - N/A   Clear
6:56 PM 41.0 °F 35.8 °F 12.9 °F 32% 30.37 in 10.0 mi SE 8.1 mph - N/A   Clear
7:56 PM 39.0 °F 32.8 °F 12.0 °F 33% 30.37 in 10.0 mi SE 9.2 mph - N/A   Clear
8:56 PM 37.0 °F 29.3 °F 12.0 °F 36% 30.37 in 10.0 mi SSE 11.5 mph - N/A   Clear
9:56 PM 36.0 °F 28.0 °F 12.0 °F 37% 30.35 in 10.0 mi SE 11.5 mph - N/A   Clear
10:56 PM 35.1 °F 26.9 °F 14.0 °F 42% 30.34 in 10.0 mi SE 11.5 mph - N/A   Clear
11:56 PM 34.0 °F 25.5 °F 15.1 °F 46% 30.31 in 10.0 mi SE 11.5 mph - N/A   Clear